Other Public Products
Issued by NWS Charleston, SC

Current Version | Previous Version | Text Only | Print | Product List | Glossary Off
Versions: 1 2 3 4 5 6 7 8 9 10 11 12 13 14 15 16 17 18 19 20 21 22 23 24 25 26 27 28 29 30 31 32 33 34 35 36 37 38 39 40 41 42 43 44 45 46 47 48 49 50

000
FPUS82 KCHS 201012
OPUCHS

TEST...KCHS/KSAV Gateway Observations...TEST
National Weather Service Charleston SC
500 AM EST MON NOV 20 2017

NOTE: "fair" indicates few or no clouds below 12,000 feet with no
significant weather and/or obstructions to visibility.

SCZ050-WAZ558-NCZ071-TXZ119-213-PAZ071-DCZ001-FLZ074-172-MI076-
NYZ176-178-MAZ016-IL014-TNZ027-NJZ106-GAZ044-MD014-201100-

...Gateway Observations for Charleston International...

CITY           SKY/WX    TMP DP  RH WIND       PRES   REMARKS
Chas Airport   CLEAR     38  32  79 N5        30.19R WCI  34
Seattle        CLOUDY    46  44  93 SE5       29.59F
Charlotte      CLEAR     30  29  96 CALM      30.17R
Dallas DFW     CLOUDY    45  31  58 CALM      30.17S
Dallas Love    CLOUDY    44  33  65 CALM      30.19S
Philladelphia  PTCLDY    39  25  57 W15       30.02R WCI  31
Wash National  PTCLDY    41  21  44 NW13      30.10R
Baltimore      MOCLDY    39  23  52 W15       30.07R WCI  31
Miami          PTCLDY    71  68  90 N7        30.00R
Detroit        CLOUDY    30  23  75 SW13      30.02F WCI  20
Newark         MOCLDY    37  26  64 W10       29.94R WCI  30
Laguardia      MOCLDY    39  24  55 W14       29.93R WCI  31
J F K          PTCLDY    38  24  57 W16G24    29.95R WCI  29
Boston Logan   MOCLDY    37  25  61 W10G21    29.76R WCI  30
Ft. Lauderdale CLEAR     69  65  86 N12       29.99R
Chicago O`Hare PTCLDY    33  22  63 SW12      29.97F WCI  24
Chicago Midway PTCLDY    33  23  66 SW12      30.00F WCI  24
Houston Bush   MOCLDY    43  40  89 CALM      30.22R
Houston Hobby  MOCLDY    47  38  71 CALM      30.21R
Nashville      CLOUDY    28  24  85 CALM      30.25S
Atlanta        CLEAR     34  28  79 NW9       30.17S WCI  27

$$

GAZ044-118-TXZ119-213-NCZ071-DCZ001-MDZ014-506-PAZ021-071-NJZ106-
NYZ176-178-MAZ106-OHZ011-021-055-MIZ076-KYZ091-ILZ014-INZ047-
MNZ060-ONZ431-201100-

...Gateway Observations for Savannah International...

CITY           SKY/WX    TMP DP  RH WIND       PRES   REMARKS
Savannah Arpt  PTCLDY    38  34  85 N5        30.17S WCI  34
Atlanta        CLEAR     34  28  79 NW9       30.17S WCI  27
Charlotte      CLEAR     30  29  96 CALM      30.17R
Dallas DFW     CLOUDY    45  31  58 CALM      30.17S
Houston Bush   MOCLDY    43  40  89 CALM      30.22R
Wash National  PTCLDY    41  21  44 NW13      30.10R
Wash Dulles    PTCLDY    38  21  50 NW16      30.10R WCI  29
Baltimore      MOCLDY    39  23  52 W15       30.07R WCI  31
Philadelphia   PTCLDY    39  25  57 W15       30.02R WCI  31
Newark         MOCLDY    37  26  64 W10       29.94R WCI  30
Laguardia      MOCLDY    39  24  55 W14       29.93R WCI  31
J F K          PTCLDY    38  24  57 W16G24    29.95R WCI  29
Boston         MOCLDY    37  25  61 W10G21    29.76R WCI  30
Pittsburg      CLOUDY    31  22  69 SW12      30.09R WCI  22
Akron          PTCLDY    28  21  75 SW10      30.08S WCI  19
Cleveland      PTCLDY    30  24  78 SW8       30.10S WCI  22
Cincinnati     CLOUDY    25  23  92 S3        30.18R
Columbus       CLEAR     25  24  94 S6        30.17R WCI  18
Detroit        CLOUDY    30  23  75 SW13      30.02F WCI  20
Chicago O`Hare PTCLDY    33  22  63 SW12      29.97F WCI  24
Minneapolis    CLOUDY    30  26  85 SE6       29.73F WCI  24
Indianapolis   CLOUDY    25  20  81 S6        30.15S WCI  18
Toronto Canada CLOUDY    30  21  69 W14G23    29.90R WCI  20

$$




USA.gov is the U.S. government's official web portal to all federal, state and local government web resources and services.